Naples, Italy

7:15 PM CET on February 19, 2018 (GMT +0100)
Capodichino Mil

Weather History for LIRN - November, 2012

Change the Weather History Date:

Wednesday, November 14, 2012

  Actual Average Record
Temperature  
Mean Temperature 66 °F -  
Max Temperature 71 °F 60 °F 75 °F (1996)
Min Temperature 60 °F 44 °F 42 °F (1998)
Growing Degree Days 16 (Base 50)    
Moisture  
Dew Point 52 °F    
Average Humidity 65    
Maximum Humidity 77    
Minimum Humidity 50    
Precipitation  
Precipitation 0.00 in 0.19 in - ()
Sea Level Pressure  
Sea Level Pressure 30.13 in    
Wind  
Wind Speed 6 mph ()    
Max Wind Speed 13 mph    
Max Gust Speed -    
Visibility 6.2 miles    
Events      
Averages and records for this station are not official NWS values.
T = Trace of Precipitation, MM = Missing Value Source: Averaged Metar Reports

Daily Weather History Graph

Daily Weather History Graph

Search for Another Location

Airport or City:

Trip Planner

Search our weather history database for the weather conditions in past years. The results will help you decide how hot, cold, wet, or windy it might be!

Date:

Astronomy

Nov. 14, 2012 Rise Set
Actual Time 6:49 AM CET 4:45 PM CET
Civil Twilight 6:19 AM CET 5:14 PM CET
Nautical Twilight 5:46 AM CET 5:47 PM CET
Astronomical Twilight 5:14 AM CET 6:19 PM CET
Moon 7:18 AM CET (11/14) 5:16 PM CET (11/14)
Length of Visible Light 10h 54m
Length of Day
9h 56m
New Moon, 0% of the Moon is Illuminated
Nov 14
New Moon
Nov 20
First Quarter
Nov 28
Full
Dec 6
Last Quarter
Dec 13
New

Hourly Weather History & Observations

Time (CET) Temp. Dew Point Humidity Pressure Visibility Wind Dir Wind Speed Gust Speed Precip Events Conditions
12:20 AM 60.8 °F 53.6 °F 77% 30.18 in - North 3.5 mph - N/A   Clear
12:50 AM 60.8 °F 53.6 °F 77% 30.18 in - NNE 4.6 mph - N/A   Clear
1:20 AM 62.6 °F 53.6 °F 72% 30.18 in - NNE 6.9 mph - N/A   Clear
1:50 AM 62.6 °F 53.6 °F 72% 30.18 in - NNE 5.8 mph - N/A   Clear
2:20 AM 62.6 °F 51.8 °F 68% 30.18 in - NNE 5.8 mph - N/A   Clear
2:50 AM 62.6 °F 53.6 °F 72% 30.18 in - North 6.9 mph - N/A   Clear
3:20 AM 62.6 °F 53.6 °F 72% 30.15 in - NE 9.2 mph - N/A   Clear
3:50 AM 62.6 °F 53.6 °F 72% 30.15 in - NE 5.8 mph - N/A   Clear
4:20 AM 62.6 °F 53.6 °F 72% 30.15 in - NNE 6.9 mph - N/A   Clear
4:50 AM 60.8 °F 53.6 °F 77% 30.15 in - NNE 5.8 mph - N/A   Clear
5:20 AM 62.6 °F 53.6 °F 72% 30.15 in - NNE 5.8 mph - N/A   Clear
5:50 AM 62.6 °F 53.6 °F 72% 30.15 in - NNE 5.8 mph - N/A   Clear
6:20 AM 62.6 °F 51.8 °F 68% 30.15 in - NNE 5.8 mph - N/A   Clear
6:50 AM 62.6 °F 53.6 °F 72% 30.15 in - NNE 8.1 mph - N/A   Clear
7:20 AM 62.6 °F 53.6 °F 72% 30.15 in - NNE 8.1 mph - N/A   Clear
7:50 AM 62.6 °F 53.6 °F 72% 30.15 in - NE 6.9 mph - N/A   Clear
8:20 AM 64.4 °F 53.6 °F 68% 30.15 in - NNE 4.6 mph - N/A   Clear
8:50 AM 66.2 °F 55.4 °F 68% 30.15 in - NE 5.8 mph - N/A   Clear
9:20 AM 68.0 °F 53.6 °F 60% 30.15 in - ENE 8.1 mph - N/A   Clear
9:50 AM 68.0 °F 53.6 °F 60% 30.15 in - ENE 10.4 mph - N/A   Clear
10:20 AM 69.8 °F 55.4 °F 60% 30.15 in - NE 11.5 mph - N/A   Clear
10:50 AM 69.8 °F 55.4 °F 60% 30.15 in - ENE 9.2 mph - N/A   Clear
11:20 AM 69.8 °F 53.6 °F 56% 30.12 in - ENE 9.2 mph - N/A   Clear
11:50 AM 69.8 °F 51.8 °F 53% 30.12 in - NE 10.4 mph - N/A   Clear
12:20 PM 71.6 °F 51.8 °F 50% 30.12 in - NE 6.9 mph - N/A   Clear
12:50 PM 71.6 °F 51.8 °F 50% 30.12 in - ENE 6.9 mph - N/A   Clear
1:20 PM 71.6 °F 51.8 °F 50% 30.09 in - ENE 6.9 mph - N/A   Clear
1:50 PM 71.6 °F 53.6 °F 53% 30.09 in - NE 12.7 mph - N/A   Clear
2:20 PM 69.8 °F 53.6 °F 56% 30.09 in - NE 12.7 mph - N/A   Clear
2:50 PM 69.8 °F 53.6 °F 56% 30.09 in - ENE 11.5 mph - N/A   Clear
3:20 PM 69.8 °F 53.6 °F 56% 30.09 in - ENE 8.1 mph - N/A   Clear
3:50 PM 68.0 °F 53.6 °F 60% 30.09 in - NE 6.9 mph - N/A   Clear
4:20 PM 66.2 °F 51.8 °F 60% 30.09 in - ENE 10.4 mph - N/A   Clear
4:50 PM 66.2 °F 51.8 °F 60% 30.12 in - ENE 9.2 mph - N/A   Clear
5:20 PM 64.4 °F 50.0 °F 59% 30.12 in 6.2 mi ENE 8.1 mph - N/A   Partly Cloudy
5:50 PM 64.4 °F 51.8 °F 64% 30.12 in 6.2 mi ENE 6.9 mph - N/A   Partly Cloudy
6:20 PM 62.6 °F 51.8 °F 68% 30.12 in 6.2 mi NE 6.9 mph - N/A   Partly Cloudy
6:50 PM 62.6 °F 50.0 °F 63% 30.12 in 6.2 mi NE 8.1 mph - N/A   Partly Cloudy
7:20 PM 62.6 °F 50.0 °F 63% 30.12 in 6.2 mi NE 8.1 mph - N/A   Partly Cloudy
7:50 PM 60.8 °F 50.0 °F 68% 30.12 in 6.2 mi NNE 6.9 mph - N/A   Partly Cloudy
8:20 PM 60.8 °F 50.0 °F 68% 30.12 in 6.2 mi Variable 6.9 mph - N/A   Partly Cloudy
8:50 PM 60.8 °F 50.0 °F 68% 30.12 in 6.2 mi NNE 6.9 mph - N/A   Partly Cloudy
9:20 PM 60.8 °F 50.0 °F 68% 30.12 in - NNE 6.9 mph - N/A   Clear
9:50 PM 60.8 °F 50.0 °F 68% 30.12 in - NNE 6.9 mph - N/A   Clear
10:20 PM 60.8 °F 50.0 °F 68% 30.09 in - North 5.8 mph - N/A   Clear
10:50 PM 60.8 °F 48.2 °F 63% 30.12 in - North 6.9 mph - N/A   Clear
11:20 PM 60.8 °F 48.2 °F 63% 30.09 in - NNE 6.9 mph - N/A   Clear
11:50 PM 60.8 °F 48.2 °F 63% 30.09 in - NNE 8.1 mph - N/A   Clear